sat.trackr.live / text

‹ back to catalog

BEIDOU-3 M11 (C25)

NORAD 43603 · 2018-067B

PAYLOAD ACTIVE UNKNOWN

§ Identity

Operator
Country
PRC
Launch date
2018-08-24
Launch site
XICLF
Launch vehicle
Mass (kg)
RCS (m²)

Purposes: nav

External: N2YO · Heavens-Above · Gunter

§ Orbital elements

Epoch: 2026-05-22T19:22:01.149600Z

Period
773.25 min
Inclination
54.1759°
Eccentricity
0.0004460
Mean motion
1.86227142 rev/d
Perigee alt
21,516.0 km
Apogee alt
21,540.9 km
Semi-major
27,906.6 km
B*
0.0000e+0
RAAN
181.8646°
Arg perigee
15.0351°
Mean anomaly
345.0417°
Rev number
5,267

§ Raw data

BEIDOU-3 M11 (C25)1 43603U 18067B   26142.80695775  .00000038  00000+0  00000+0 0  99992 43603  54.1759 181.8646 0004460  15.0351 345.0417  1.86227142 52679

JSON: /api/v1/satellites/43603 · /tle

For live sub-satellite position, see the globe view (requires WebGL).

§ Visibility from observer

Set your observer location to see the next 7 days of passes ≥ 10°. The values pass through the URL so the page stays shareable.

No JS? Fill the form by hand. The geolocation button needs JavaScript.